Location: Amsterdam
(30.7274°N, 84.4357°W)
Time: 17:32:49
(UTC+00:00)

Injun/Solrad 3 - Pass Details

Date: 22 February 2026
Orbit: 871 x 985 km, 66.8° (Epoch: 11 March)

Event Time Altitude Azimuth Distance (km) Brightness Sun altitude
Rises 00:02:23 0° 351° (N) 3,592 11.0 -7.6°
Reaches altitude 10° 00:05:40 10° 8° (N) 2,666 10.1 -8.3°
Maximum altitude 00:10:06 20° 54° (NE) 2,061 9.2 -9.2°
Enters shadow 00:14:04 12° 96° (E) 2,584 9.6 -10.1°
Drops below altitude 10° 00:14:35 10° 99° (E) 2,707 - -10.2°
Sets 00:17:55 0° 116° (ESE) 3,665 - -10.9°
